Skip Page Navigation
NASA JPL Caltech
NASA Logo - Jet Propulsion Laboratory + View the NASA Portal
+ Center for Near-Earth Object Studies
JPL Home Earth Solar System Stars & Galaxies Technology
JPL Solar System Dynamics
BODIES ORBITS EPHEMERIDES TOOLS PHYSICAL DATA DISCOVERY FAQ SITE MAP
JPL Small-Body Database Browser
Search: [ help ]  
59649 (1999 JB90)
Classification: Main-belt Asteroid          SPK-ID: 2059649
Ephemeris | Orbit Diagram | Orbital Elements | Mission Design | Physical Parameters | Discovery Circumstances | Close-Approach Data ]

[ show orbit diagram ]
Orbital Elements at Epoch 2459000.5 (2020-May-31.0) TDB
Reference: JPL 26 (heliocentric ecliptic J2000)
 Element Value Uncertainty (1-sigma)   Units 
e .1107179372115664 3.146e-08  
a 2.294421794813064 7.5621e-09 au
q 2.040388146598102 7.4073e-08 au
i 6.006731735835475 3.1032e-06 deg
node 140.5494933263355 3.4157e-05 deg
peri 240.4628279016294 3.7433e-05 deg
M 231.1534577570608 1.6695e-05 deg
tp 2459454.837499382846
(2021-Aug-28.33749938)
5.9875e-05 TDB
period 1269.428708994227
3.48
6.2758e-06
1.718e-08
d
yr
n .283592136722061 1.402e-09 deg/d
Q 2.548455443028026 8.3994e-09 au
  Orbit Determination Parameters
   # obs. used (total)      1506  
   data-arc span      9298 days (25.46 yr)  
   first obs. used      1995-02-04  
   last obs. used      2020-07-20  
   planetary ephem.      DE431  
   SB-pert. ephem.      SB431-N16  
   condition code      0  
   norm. resid. RMS      .5617  
   source      ORB  
   producer      Otto Matic  
   solution date      2020-Nov-12 22:45:46  

Additional Information
 Earth MOID = 1.04991 au 
 Jupiter MOID = 2.89134 au 
 T_jup = 3.581 
[ show covariance matrix ]

Ephemeris | Orbit Diagram | Orbital Elements | Mission Design | Physical Parameters | Discovery Circumstances | Close-Approach Data ]

Physical Parameter Table
Parameter Symbol Value Units Sigma Reference Notes
absolute magnitude H 15.3   n/a MPO468499  
diameter diameter 2.027 km 0.387 urn:nasa:pds:neowise_diameters_albedos::2.0[mainbelt] (http://adsabs.harvard.edu/abs/2011ApJ...741...68M)  
geometric albedo albedo 0.430   0.209 urn:nasa:pds:neowise_diameters_albedos::2.0[mainbelt] (http://adsabs.harvard.edu/abs/2011ApJ...741...68M)  

59649 (1999 JB90)          Discovered 1999-May-12 by LINEAR at Socorro
Reference: 20030614/Numbers.arcLast Updated: 2004-04-19

[ hide close-approach data ]
Close-Approach Data   ...sorted by Date/Time (TDB)
Date/Time (TDB) Time Uncertainty
(days_HH:MM)
Body Nominal Distance (au) Minimum Distance (au) Maximum Distance (au) V-relative (km/s) V-infinity (km/s) JD (TDB) Time Uncertainty (minutes) Semi-major axis (km) Semi-minor axis (km) range-LOV angle (deg) N-sigma BP Orbit Ref. Reference Modified
2014-Feb-27 12:34 < 00:01 Hebe 0.0476326772144578 0.0476316006501783 0.0476337538015235 3.70339970498485 3.70339966974354 2456716.023285129 0.570175988781416 81.9634864526923 29.2853464494231 54.0404936841009 203309.000503127 T 26 CATAB v2.0f-lin.ifort 2020-Nov-12 22:45:49 2020-Nov-12 22:45

Alternate Designations
 1999 JB90 = 2000 QS131 
Ephemeris | Orbit Diagram | Orbital Elements | Mission Design | Physical Parameters | Discovery Circumstances | Close-Approach Data ]
ABOUT SSD CREDITS/AWARDS PRIVACY/COPYRIGHT GLOSSARY LINKS
FirstGov 2020-Dec-05 16:18 UT
(server date/time)  
NASA Home Page
Site Manager:   Ryan S. Park
Webmaster  Alan B. Chamberlin